Eufaula, AL

12:19 PM CST on February 08, 2016 (GMT -0600)
Weedon

Weather History for KEUF - December, 2012

Change the Weather History Date:

Monday, December 24, 2012

  Actual Average (KLSF) Record (KLSF)
Temperature  
Mean Temperature 58 °F -  
Max Temperature 69 °F 54 °F 75 °F (2015)
Min Temperature 48 °F 31 °F 23 °F (2005)
Degree Days  
Heating Degree Days 6    
Growing Degree Days 8 (Base 50)    
Moisture  
Dew Point 55 °F    
Average Humidity 90    
Maximum Humidity 100    
Minimum Humidity 61    
Precipitation  
Precipitation 0.60 in - - ()
Sea Level Pressure  
Sea Level Pressure 29.91 in    
Wind  
Wind Speed 4 mph (SSW)    
Max Wind Speed 8 mph    
Max Gust Speed 16 mph    
Visibility 4 miles    
Events Fog , Rain , Thunderstorm    
Averages and records for this station are not official NWS values.
T = Trace of Precipitation, MM = Missing Value Source: NWS Daily Summary

Daily Weather History Graph

Daily Weather History Graph

Search for Another Location

Airport or City:

Trip Planner

Search our weather history database for the weather conditions in past years. The results will help you decide how hot, cold, wet, or windy it might be!

Date:

Astronomy

Dec. 24, 2012 Rise Set
Actual Time 6:38 AM CST 4:42 PM CST
Civil Twilight 6:11 AM CST 5:09 PM CST
Nautical Twilight 5:40 AM CST 5:39 PM CST
Astronomical Twilight 5:11 AM CST 6:09 PM CST
Moon 2:05 PM CST (12/24) 3:20 AM CST (12/24)
Length of Visible Light 10h 57m
Length of Day
10h 03m
Waxing Gibbous, 88% of the Moon is Illuminated
Dec 24
Waxing Gibbous
Dec 28
Full
Jan 4
Last Quarter
Jan 11
New
Jan 18
First Quarter

Hourly Weather History & Observations

Time (CST) Temp. Dew Point Humidity Pressure Visibility Wind Dir Wind Speed Gust Speed Precip Events Conditions
12:58 AM 48.9 °F 37.9 °F 66% 30.05 in 10.0 mi South 5.8 mph - N/A   Overcast
1:58 AM 51.1 °F 37.9 °F 61% 30.03 in 10.0 mi South 5.8 mph - N/A   Mostly Cloudy
2:58 AM 52.0 °F 39.9 °F 63% 30.01 in 10.0 mi South 6.9 mph - 0.00 in   Overcast
3:58 AM 51.1 °F 43.0 °F 74% 29.99 in 10.0 mi South 5.8 mph - 0.00 in   Mostly Cloudy
4:58 AM 52.0 °F 45.0 °F 77% 29.97 in 10.0 mi South 6.9 mph - N/A   Mostly Cloudy
5:58 AM 53.1 °F 46.0 °F 77% 29.96 in 10.0 mi South 6.9 mph - N/A   Overcast
6:58 AM 54.0 °F 46.9 °F 77% 29.95 in 10.0 mi South 6.9 mph - N/A   Overcast
7:58 AM 55.9 °F 48.9 °F 77% 29.94 in 10.0 mi South 8.1 mph - N/A   Overcast
8:58 AM 57.0 °F 51.1 °F 81% 29.94 in 10.0 mi South 8.1 mph 16.1 mph 0.00 in Rain Light Rain
9:58 AM 59.0 °F 54.0 °F 83% 29.92 in 8.0 mi South 8.1 mph - 0.02 in Rain Rain
10:27 AM 59.0 °F 55.4 °F 88% 29.93 in 2.5 mi SSW 4.6 mph - 0.06 in Rain Heavy Rain
10:35 AM 57.2 °F 55.4 °F 94% 29.93 in 2.0 mi SW 5.8 mph - 0.08 in Rain , Thunderstorm Thunderstorms and Rain
10:42 AM 59.0 °F 55.4 °F 88% 29.92 in 1.8 mi WSW 4.6 mph - 0.12 in Rain , Thunderstorm Heavy Thunderstorms and Rain
10:46 AM 59.0 °F 55.4 °F 88% 29.92 in 1.2 mi SSW 6.9 mph - 0.15 in Rain , Thunderstorm Heavy Thunderstorms and Rain
10:57 AM 59.0 °F 57.0 °F 93% 29.90 in 3.0 mi SSE 8.1 mph - 0.18 in Rain , Thunderstorm Light Thunderstorms and Rain
11:03 AM 59.0 °F 57.2 °F 94% 29.91 in 9.0 mi Variable 5.8 mph - 0.00 in Rain , Thunderstorm Light Thunderstorms and Rain
11:12 AM 60.8 °F 57.2 °F 88% 29.91 in 3.0 mi Calm Calm - 0.03 in Rain Rain
11:15 AM 60.8 °F 57.2 °F 88% 29.91 in 1.8 mi Calm Calm - 0.05 in Rain Heavy Rain
11:21 AM 59.0 °F 57.2 °F 94% 29.90 in 0.8 mi Calm Calm - 0.11 in Rain Heavy Rain
11:31 AM 59.0 °F 57.2 °F 94% 29.91 in 1.5 mi Calm Calm - 0.15 in Rain Rain
11:43 AM 59.0 °F 57.2 °F 94% 29.90 in 0.8 mi South 4.6 mph - 0.24 in Rain Heavy Rain
11:52 AM 59.0 °F 57.2 °F 94% 29.89 in 1.0 mi South 5.8 mph - 0.32 in Rain Heavy Rain
11:58 AM 60.1 °F 57.9 °F 93% 29.88 in 1.0 mi WSW 3.5 mph - 0.36 in Rain Rain
12:04 PM 60.8 °F 59.0 °F 94% 29.89 in 3.0 mi Calm Calm - 0.00 in Rain Light Rain
12:13 PM 60.8 °F 60.8 °F 100% 29.90 in 2.0 mi WNW 5.8 mph - 0.03 in Rain Rain
12:18 PM 60.8 °F 60.8 °F 100% 29.89 in 1.8 mi Calm Calm - 0.03 in Rain Light Rain
12:22 PM 60.8 °F 60.8 °F 100% 29.89 in 6.0 mi West 8.1 mph - 0.03 in Rain Light Rain
12:36 PM 62.6 °F 62.6 °F 100% 29.88 in 10.0 mi SSW 5.8 mph - 0.03 in   Overcast
12:42 PM 64.4 °F 64.4 °F 100% 29.88 in 10.0 mi Variable 4.6 mph - 0.03 in   Mostly Cloudy
12:58 PM 63.0 °F 63.0 °F 100% 29.87 in 10.0 mi South 4.6 mph - 0.03 in   Mostly Cloudy
1:06 PM 64.4 °F 64.4 °F 100% 29.87 in 10.0 mi South 4.6 mph - N/A   Scattered Clouds
1:47 PM 66.2 °F 60.8 °F 83% 29.86 in 10.0 mi Variable 3.5 mph - N/A   Mostly Cloudy
1:51 PM 66.2 °F 62.6 °F 88% 29.86 in 10.0 mi Calm Calm - N/A   Mostly Cloudy
1:58 PM 68.0 °F 62.1 °F 81% 29.85 in 10.0 mi South 3.5 mph - N/A   Scattered Clouds
2:58 PM 69.1 °F 61.0 °F 75% 29.86 in 10.0 mi SSE 6.9 mph - N/A   Scattered Clouds
3:58 PM 68.0 °F 60.1 °F 76% 29.86 in 10.0 mi South 4.6 mph - N/A   Clear
4:58 PM 61.0 °F 59.0 °F 93% 29.88 in 7.0 mi Calm Calm - N/A   Clear
5:07 PM 60.8 °F 57.2 °F 88% 29.88 in 1.8 mi Calm Calm - N/A   Clear
5:15 PM 59.0 °F 57.2 °F 94% 29.89 in 0.8 mi Calm Calm - N/A   Clear
5:44 PM 57.2 °F 55.4 °F 94% 29.89 in 0.2 mi Calm Calm - N/A Fog Fog
5:58 PM 57.0 °F 55.0 °F 93% 29.88 in 0.8 mi Calm Calm - N/A   Partly Cloudy
6:19 PM 55.4 °F 55.4 °F 100% 29.89 in 1.5 mi Calm Calm - N/A   Scattered Clouds
6:39 PM 55.4 °F 53.6 °F 94% 29.89 in 3.0 mi Calm Calm - N/A   Scattered Clouds
6:53 PM 55.4 °F 53.6 °F 94% 29.90 in 1.8 mi Calm Calm - 0.01 in   Mostly Cloudy
6:58 PM 55.9 °F 54.0 °F 93% 29.90 in 0.5 mi Calm Calm - 0.01 in Fog Fog
7:11 PM 55.4 °F 53.6 °F 94% 29.90 in 1.2 mi Calm Calm - N/A   Mostly Cloudy
7:16 PM 53.6 °F 51.8 °F 94% 29.91 in 0.5 mi Calm Calm - N/A Fog Fog
7:33 PM 55.4 °F 53.6 °F 94% 29.91 in 0.2 mi Calm Calm - N/A Fog Fog
7:42 PM 53.6 °F 51.8 °F 94% 29.92 in 0.5 mi Calm Calm - 0.00 in Fog , Rain Light Rain
7:51 PM 53.6 °F 51.8 °F 94% 29.92 in 1.0 mi South 3.5 mph - 0.00 in Rain Light Rain
7:58 PM 53.1 °F 52.0 °F 96% 29.92 in 1.5 mi Calm Calm - 0.00 in   Mostly Cloudy
8:14 PM 53.6 °F 51.8 °F 94% 29.92 in 0.5 mi SSW 3.5 mph - 0.00 in Fog , Rain Light Rain
8:19 PM 55.4 °F 53.6 °F 94% 29.92 in 0.2 mi SSW 3.5 mph - 0.00 in Fog , Rain Light Rain
8:44 PM 55.4 °F 55.4 °F 100% 29.92 in 0.2 mi SSW 3.5 mph - 0.00 in Fog Fog
8:58 PM 55.9 °F 54.0 °F 93% 29.92 in 0.2 mi Calm Calm - 0.00 in Fog Fog
9:58 PM 60.1 °F 59.0 °F 96% 29.92 in 0.2 mi SSW 3.5 mph - N/A Fog Fog
10:58 PM 61.0 °F 60.1 °F 97% 29.92 in 0.5 mi Variable 3.5 mph - N/A Fog Fog
11:58 PM 61.0 °F 60.1 °F 97% 29.92 in 0.5 mi Calm Calm - N/A Fog Fog